Volver al catálogo

FENGYUN 1C DEB

ActivoPO
NORAD 29920·DEBRIS·🇨🇳 China

Lanzado May 10, 1999 desde Taiyuan Satellite Launch Center

Loading…

Próximos Pases (próximas 24 horas)

TLE

EnvejeciendoSource: Space-Track

Época: Sep 9, 2026, 07:59 UTC

1 29920U 99025HS  26252.33284093  .00001130  00000-0  68638-3 0  9995
2 29920  98.3736  91.0985 0123046 233.7597 125.2149 14.04416993   762

Sigue FENGYUN 1C DEB en tiempo real con AllMySat

Download on the App Store